Location: Nelson
(38.9945°N, 93.0321°W)
Time: 16:31:48
(UTC+00:00)

ACS3 Solar Sail - Pass Details

Date: 03 July 2024
Orbit: 993 x 1023 km, 97.4° (Epoch: 21 July)

Event Time Altitude Azimuth Distance (km) Brightness Sun altitude
Exits shadow 03:03:38 18° 141° (SE) 2,222 6.0 -13.4°
Maximum altitude 03:08:06 51° 72° (ENE) 1,236 5.2 -14.0°
Drops below altitude 10° 03:14:04 10° 359° (N) 2,764 7.9 -14.8°
Sets 03:16:37 0° 354° (N) 3,718 8.7 -15.2°
